{"data":{"norad_id":64802,"intl_designator":"2025-150N","name":"STARLINK-34658","alt_names":[],"object_type":"PAYLOAD","status":"ACTIVE","operator":null,"country":"US","launch_date":"2025-07-16","launch_site_code":"AFWTR","launch_vehicle":null,"mission":null,"orbit_class":"UNKNOWN","rcs_meters":null,"size_class":null,"mass_kg":null,"dimensions":null,"purposes":["comms"],"wikipedia_slug":null,"has_3d_model":false,"image_url":null,"decayed_at":null,"tle_current":{"epoch":"2026-05-24T20:50:42.768384Z","epoch_age_seconds":100547,"freshness":"FRESH","line1":"1 64802U 25150N   26144.86855056  .00002479  00000+0  21545-3 0  9994","line2":"2 64802  70.0005 302.5388 0003126 267.9999  92.0802 14.98336495 47921","mean_motion":14.98336495,"eccentricity":0.0003126,"inclination_deg":70.0005,"raan_deg":302.5388,"arg_perigee_deg":267.9999,"mean_anomaly_deg":92.0802,"bstar":0.00021545,"rev_number":4792,"period_min":96.10658252037,"perigee_km":569.86318174616,"apogee_km":574.20842978433,"semimajor_km":6950.1728057652,"source":"CELESTRAK","updated_at":"2026-05-25T13:38:20.566036Z"}}}